Regional Weather Roundup
Issued by NWS Goodland, KS

Home | Current Version | Previous Version | Text Only | Print | Product List | Glossary Off
Versions: 1 2 3 4 5 6 7 8 9 10 11 12 13 14 15 16 17 18 19 20 21 22 23 24 25 26 27 28 29 30 31 32 33 34 35 36 37 38 39 40 41 42 43 44 45 46 47 48 49 50

000
ASUS43 KGLD 261208
RWRGLD

GOODLAND FORECAST AREA HOURLY WEATHER ROUNDUP
NATIONAL WEATHER SERVICE GOODLAND KS
600 AM MDT MON JUN 26 2017

...OFFICIAL OBSERVATIONS...

CITY           SKY/WX    TMP DP  RH WIND       PRES   REMARKS
GOODLAND KS    MOCLDY    57  56  96 S8        30.24S FOG
HILL CITY KS   CLOUDY    59  57  93 W5        30.23S
IMPERIAL NEB   FOG       50  49  96 S3        30.23S VSB 1/4
MCCOOK NEB     CLOUDY    60  58  92 SW6       30.23S
AKRON CO       CLEAR     57  53  86 SW12      30.26S
BURLINGTON CO  CLEAR     58  56  93 SW10      30.27S
LIMON CO       CLOUDY    58  58 100 S9        30.31F
$$

...UNOFFICIAL OBSERVATIONS...

CITY           SKY/WX    TMP DP  RH WIND       PRES   REMARKS
LENORA KS        N/A     58  32  37 MISG        N/A
NORTON KS      CLOUDY    57  54  88 SW7       30.22S
SHARON SPRINGS   N/A     57  55  95 SW6         N/A
TRENTON NEB      N/A     57  32  39 CALM        N/A
KIT CARSON CO    N/A     59  54  84 MISG        N/A
YUMA CO        FAIR      52  52 100 SW5       30.25R
$$



USA.gov is the U.S. government's official web portal to all federal, state and local government web resources and services.